Regional Weather Roundup
Issued by NWS

Home | Current Version | Previous Version | Text Only | Print | Product List | Glossary On
Versions: 1 2 3 4 5 6 7 8 9 10 11 12 13 14 15 16 17 18 19 20 21 22 23 24 25 26 27 28 29 30 31 32 33 34 35 36 37 38 39 40 41 42 43 44 45 46 47 48 49 50
000
ASUS43 KLOT 271608
RWRIL

ILLINOIS REGIONAL WEATHER ROUNDUP
NATIONAL WEATHER SERVICE CHICAGO/ROMEOVILLE IL
1100 AM CDT MON MAR 27 2017

NOTE: "FAIR" INDICATES FEW OR NO CLOUDS BELOW 12,000 FEET WITH NO
SIGNIFICANT WEATHER AND/OR OBSTRUCTIONS TO VISIBILITY.

* THESE STATIONS ARE NOT UNDER NWS QUALITY CONTROL. THEY ALSO MAY NOT
  REPORT WEATHER SUCH AS PRECIPITATION OR FOG.

ILZ001-002-007-009-015-016-024-271700-
NORTHWEST ILLINOIS

CITY           SKY/WX    TMP DP  RH WIND       PRES   REMARKS
MOLINE         CLOUDY    50  45  83 E6        29.93S
STERLING*      CLOUDY    49  46  90 E6        29.94F
SAVANNA*       CLOUDY    49  44  84 E7        29.94S
$$

ILZ003-004-008-010-011-017-018-271700-
NORTH CENTRAL ILLINOIS

CITY           SKY/WX    TMP DP  RH WIND       PRES   REMARKS
ROCKFORD       CLOUDY    48  43  82 E6        29.96S
FREEPORT*      CLOUDY    45  44  94 E6        29.95F
ROCHELLE*      CLOUDY    47  45  92 E6        29.95R
DE KALB*       CLOUDY    47  45  90 CALM      29.96R
PERU*          CLOUDY    49  46  91 E5        29.95R FOG
$$

ILZ005-006-012>014-019>023-271700-
NORTHEAST ILLINOIS

CITY           SKY/WX    TMP DP  RH WIND       PRES   REMARKS
CHICAGO-OHARE  CLOUDY    47  44  90 E6        29.95S FOG
CHICAGO-MIDWAY CLOUDY    47  45  93 NE7       29.96R FOG
AURORA         CLOUDY    51  46  83 CALM      29.95R HAZE
LANSING*       CLOUDY    51  48  90 CALM      29.96R
JOLIET*        CLOUDY    51  48  89 CALM      29.95S
WAUKEGAN       CLOUDY    45  42  89 E5        29.95R
DUPAGE AIRPORT FOG       48  48 100 NE5       29.94R VSB 1/2
KANKAKEE*      CLOUDY    53  50  89 CALM      29.96S
WHEELING       CLOUDY    47  45  93 E5        29.97R
MORRIS*        CLOUDY    51  47  86 CALM      29.94S
ROMEOVILLE*    CLOUDY    50  49  95 CALM      29.95R
NORTHERLY ISL    N/A     41  40  96 NE5         N/A
$$

LMZ740>746-271700-
SOUTHERN LAKE MICHIGAN

STATION/POSITION SKY/WX   TEMP    WIND        PRES    VSBY  WAVE
                          AIR SEA DIR/SP/G                  HT/PER
                          (F)     (DEG/KT/KT) (MB)    (MI)  (FT/S)
HARRISON CRIB              42      50/  8/  8   N/A
BURNHAM HARBOR             41      10/  3/  6   N/A
CALUMET HARBOR             41      40/  5/  8 1014.2R
BURNS HARBOR               42      50/  8/ 11 1015.2
MICHIGAN CITY              40      40/  9/ 10   N/A
$$

ILZ025>027-034>036-040-047-049-050-058-095>099-271700-
WEST-CENTRAL ILLINOIS

CITY           SKY/WX    TMP DP  RH WIND       PRES   REMARKS
QUINCY         LGT RAIN  50  48  93 NE12      29.91S FOG
GALESBURG*     RAIN      48  46  93 E3        29.93F
MACOMB*        RAIN      48  48 100 NE7       29.95S
JACKSONVILLE*  RAIN      49  48  97 NE8       29.91F
PITTSFIELD*    LGT RAIN  49  49  98 NE9       29.91F
$$

ILZ028>032-037-038-041>044-048-051>054-059>061-271700-
CENTRAL ILLINOIS

CITY           SKY/WX    TMP DP  RH WIND       PRES   REMARKS
PONTIAC        LGT RAIN  51  51  98 E5        29.96R
BLOOMINGTON    LGT RAIN  50  49  96 S7        29.96R
DECATUR        CLOUDY    56  49  77 E9        29.91F
PEORIA         LGT RAIN  50  48  93 NE3       29.95R FOG
LACON*         CLOUDY    48  47  95 CALM      29.95S FOG
LINCOLN*       LGT RAIN  51  51  98 E5        29.94F
SPRINGFIELD    LGT RAIN  51  49  92 NE6       29.92F FOG
TAYLORVILLE    LGT RAIN  52  50  93 NE3       29.90F
$$

ILZ033-039-045-046-055>057-062-063-271700-
EAST-CENTRAL ILLINOIS

CITY           SKY/WX    TMP DP  RH WIND       PRES   REMARKS
CHAMPAIGN      CLOUDY    56  49  77 SE9       29.94S
RANTOUL*       RAIN      54  51  90 SE6       29.95S
MATTOON        CLOUDY    56  49  77 E8        29.89F
PARIS*         CLOUDY    57  51  81 SE10      29.95F
$$

ILZ079-100>102-271700-
SOUTHWEST ILLINOIS

CITY           SKY/WX    TMP DP  RH WIND       PRES   REMARKS
ALTON          LGT RAIN  50  50 100 NE10      29.87F
BELLEVILLE     DRIZZLE   52  52 100 N7        29.83F
CAHOKIA*       LGT RAIN  53  50  89 NE8       29.84F FOG
SPARTA*        CLOUDY    57  55  94 S9G16     29.85F
$$

ILZ064>066-069>071-074>076-080>082-084>086-088>090-092>094-271700-
SOUTH-CENTRAL ILLINOIS

CITY           SKY/WX    TMP DP  RH WIND       PRES   REMARKS
CARBONDALE     LGT RAIN  62  57  83 SW18G29   29.85S
CAIRO*         MOSUNNY   64  57  78 SW9G17    29.89F
EFFINGHAM*     CLOUDY    54  51  89 NE3       29.89S
MARION         CLOUDY    64  57  77 SW16G25   29.87R
MT. VERNON     CLOUDY    58  55  90 SE6       29.86R
CENTRALIA*     LGT RAIN  57  56  97 SE7       29.85R
SALEM*         RAIN      55  52  90 E6        29.86S
METROPOLIS*    MOSUNNY   67  56  67 SW14G22   29.91R
$$

ILZ067-068-072-073-078-083-087-091-271700-
SOUTHEAST ILLINOIS

CITY           SKY/WX    TMP DP  RH WIND       PRES   REMARKS
LAWRENCEVILLE  CLOUDY    56  53  90 E13       29.87F
FLORA*         CLOUDY    55  52  89 E5        29.88S
FAIRFIELD*     CLOUDY    56  56 100 CALM      29.87R
HARRISBURG*    CLOUDY    63  57  80 SW13      29.88S
ROBINSON*      LGT RAIN  56  51  82 E15       29.89F
CARMI*         PTSUNNY   59  57  94 SE15      29.87S
$$

ABBREVIATIONS USED IN REMARKS
   TC - TEMPERATURE IN CELSIUS
  WCI - WIND CHILL INDEX
   HX - HEAT INDEX
  VSB - VISIBILITY
$$





USA.gov is the U.S. government's official web portal to all federal, state and local government web resources and services.